Weather History for Lander, WY

Change the Weather History Date:

Saturday, May 25, 2013

  Actual Average Record
Temperature  
Mean Temperature 61 °F 56 °F  
Max Temperature 78 °F 69 °F 86 °F (1969)
Min Temperature 44 °F 43 °F 27 °F (1893)
Degree Days  
Heating Degree Days 4 9  
Month to date heating degree days 259 318  
Since 1 July heating degree days 7319 7572  
Cooling Degree Days 0 0  
Month to date cooling degree days 9 0  
Year to date cooling degree days 9 0  
Growing Degree Days 12 (Base 50)    
Moisture  
Dew Point 25 °F    
Average Humidity 30    
Maximum Humidity 48    
Minimum Humidity 11    
Precipitation  
Precipitation 0.00 in 0.07 in 0.75 in (1996)
Month to date precipitation 1.83 1.82  
Year to date precipitation 7.37 5.84  
Snow  
Snow 0.00 in 0.10 in - ()
Month to date snowfall 10.5 4.7  
Since 1 July snowfall 111.1 91.2  
Snow Depth 0.00 in    
Sea Level Pressure  
Sea Level Pressure 29.76 in    
Wind  
Wind Speed 9 mph (SW)    
Max Wind Speed 28 mph    
Max Gust Speed 37 mph    
Visibility 10 miles    
Events      
T = Trace of Precipitation, MM = Missing Value Source: NWS Daily Summary

Daily Weather History Graph

Daily Weather History Graph

Search for Another Location

Airport:

Trip Planner

Search our weather history database for the weather conditions in past years. The results will help you decide how hot, cold, wet, or windy it might be!

Date:

Astronomy

May. 25, 2013 Rise Set
Actual Time 5:43 AM MDT 8:41 PM MDT
Civil Twilight 5:09 AM MDT 9:14 PM MDT
Nautical Twilight 4:26 AM MDT 9:57 PM MDT
Astronomical Twilight 3:36 AM MDT 10:48 PM MDT
Moon 9:32 PM MDT (5/25) 6:13 AM MDT (5/25)
Length of Visible Light 16h 05m
Length of Day
14h 57m
Waxing Gibbous, 99% of the Moon is Illuminated
May 25
Waxing Gibbous
May 31
Last Quarter
Jun 8
New
Jun 16
First Quarter
Jun 23
Full

Hourly Weather History & Observations

Time (MDT) Temp. Dew Point Humidity Pressure Visibility Wind Dir Wind Speed Gust Speed Precip Events Conditions
12:53 AM 53.1 °F 19.0 °F 26% 29.83 in 10.0 mi SE 5.8 mph - N/A   Clear
1:53 AM 51.1 °F 19.9 °F 29% 29.84 in 10.0 mi East 3.5 mph - N/A   Clear
2:53 AM 51.1 °F 19.0 °F 28% 29.83 in 10.0 mi Calm Calm - N/A   Clear
3:53 AM 46.9 °F 26.1 °F 44% 29.83 in 10.0 mi Variable 3.5 mph - N/A   Clear
4:53 AM 51.1 °F 19.0 °F 28% 29.82 in 10.0 mi SSW 4.6 mph - N/A   Clear
5:53 AM 48.9 °F 21.9 °F 35% 29.83 in 10.0 mi Calm Calm - N/A   Clear
6:53 AM 48.0 °F 28.0 °F 46% 29.84 in 10.0 mi NNW 4.6 mph - N/A   Clear
7:53 AM 51.1 °F 32.0 °F 48% 29.82 in 10.0 mi Calm Calm - N/A   Clear
8:53 AM 59.0 °F 34.0 °F 39% 29.81 in 10.0 mi North 3.5 mph - N/A   Clear
9:53 AM 64.0 °F 34.0 °F 33% 29.78 in 10.0 mi East 3.5 mph - N/A   Clear
10:53 AM 68.0 °F 30.9 °F 25% 29.75 in 10.0 mi NE 8.1 mph - N/A   Clear
11:53 AM 71.1 °F 32.0 °F 24% 29.74 in 10.0 mi NNW 9.2 mph - N/A   Clear
12:53 PM 75.0 °F 30.9 °F 20% 29.72 in 10.0 mi WSW 11.5 mph 16.1 mph N/A   Clear
1:53 PM 77.0 °F 25.0 °F 15% 29.70 in 10.0 mi South 18.4 mph 27.6 mph N/A   Clear
2:53 PM 77.0 °F 24.1 °F 14% 29.69 in 10.0 mi South 23.0 mph 27.6 mph N/A   Clear
3:53 PM 77.0 °F 23.0 °F 13% 29.70 in 10.0 mi WSW 18.4 mph 29.9 mph N/A   Clear
4:53 PM 75.0 °F 19.9 °F 13% 29.68 in 10.0 mi SW 15.0 mph 24.2 mph N/A   Clear
5:53 PM 75.9 °F 18.0 °F 11% 29.68 in 10.0 mi SW 21.9 mph 31.1 mph N/A   Clear
6:53 PM 73.9 °F 24.1 °F 16% 29.69 in 10.0 mi WSW 10.4 mph - N/A   Clear
7:53 PM 69.1 °F 23.0 °F 18% 29.71 in 10.0 mi WSW 8.1 mph - N/A   Clear
8:53 PM 64.0 °F 24.1 °F 22% 29.72 in 10.0 mi SW 11.5 mph - N/A   Clear
9:53 PM 61.0 °F 25.0 °F 25% 29.75 in 10.0 mi SW 11.5 mph - N/A   Clear
10:53 PM 62.1 °F 25.0 °F 24% 29.75 in 10.0 mi WSW 10.4 mph - N/A   Clear
11:53 PM 55.9 °F 28.9 °F 36% 29.78 in 10.0 mi Calm Calm - N/A   Clear